Year,Month,Day,Hour,Minute,Value (Times are PST for temperature in C)
2022,04,23,00,00,4.90
2022,04,23,00,01,4.90
2022,04,23,00,02,4.90
2022,04,23,00,03,4.90
2022,04,23,00,04,4.80
2022,04,23,00,05,4.80
2022,04,23,00,06,4.80
2022,04,23,00,07,4.70
2022,04,23,00,08,4.70
2022,04,23,00,09,4.70
2022,04,23,00,10,4.70
2022,04,23,00,11,4.70
2022,04,23,00,12,4.70
2022,04,23,00,13,4.80
2022,04,23,00,14,4.80
2022,04,23,00,15,4.80
2022,04,23,00,16,4.90
2022,04,23,00,17,4.90
2022,04,23,00,18,4.90
2022,04,23,00,19,4.80
2022,04,23,00,20,4.80
2022,04,23,00,21,4.80
2022,04,23,00,22,4.80
2022,04,23,00,23,4.70
2022,04,23,00,24,4.70
2022,04,23,00,25,4.70
2022,04,23,00,26,4.70
2022,04,23,00,27,4.70
2022,04,23,00,28,4.70
2022,04,23,00,29,4.60
2022,04,23,00,30,4.60
2022,04,23,00,31,4.60
2022,04,23,00,32,4.60
2022,04,23,00,33,4.60
2022,04,23,00,34,4.50
2022,04,23,00,35,4.50
2022,04,23,00,36,4.40
2022,04,23,00,37,4.40
2022,04,23,00,38,4.30
2022,04,23,00,39,4.30
2022,04,23,00,40,4.30
2022,04,23,00,41,4.30
2022,04,23,00,42,4.30
2022,04,23,00,43,4.40
2022,04,23,00,44,4.50
2022,04,23,00,45,4.50
2022,04,23,00,46,4.50
2022,04,23,00,47,4.60
2022,04,23,00,48,4.50
2022,04,23,00,49,4.50
2022,04,23,00,50,4.40
2022,04,23,00,51,4.40
2022,04,23,00,52,4.40
2022,04,23,00,53,4.30
2022,04,23,00,54,4.30
2022,04,23,00,55,4.30
2022,04,23,00,56,4.30
2022,04,23,00,57,4.30
2022,04,23,00,58,4.30
2022,04,23,00,59,4.30
2022,04,23,01,00,4.30
2022,04,23,01,01,4.30
2022,04,23,01,02,4.40
2022,04,23,01,03,4.40
2022,04,23,01,04,4.40
2022,04,23,01,05,4.40
2022,04,23,01,06,4.40
2022,04,23,01,07,4.40
2022,04,23,01,08,4.40
2022,04,23,01,09,4.30
2022,04,23,01,10,4.30
2022,04,23,01,11,4.30
2022,04,23,01,12,4.30
2022,04,23,01,13,4.30
2022,04,23,01,14,4.30
2022,04,23,01,15,4.30
2022,04,23,01,16,4.30
2022,04,23,01,17,4.30
2022,04,23,01,18,4.30
2022,04,23,01,19,4.30
2022,04,23,01,20,4.20
2022,04,23,01,21,4.20
2022,04,23,01,22,4.30
2022,04,23,01,23,4.30
2022,04,23,01,24,4.30
2022,04,23,01,25,4.30
2022,04,23,01,26,4.30
2022,04,23,01,27,4.30
2022,04,23,01,28,4.30
2022,04,23,01,29,4.30
2022,04,23,01,30,4.30
2022,04,23,01,31,4.30
2022,04,23,01,32,4.30
2022,04,23,01,33,4.30
2022,04,23,01,34,4.30
2022,04,23,01,35,4.30
2022,04,23,01,36,4.30
2022,04,23,01,37,4.20
2022,04,23,01,38,4.20
2022,04,23,01,39,4.20
2022,04,23,01,40,4.30
2022,04,23,01,41,4.30
2022,04,23,01,42,4.30
2022,04,23,01,43,4.40
2022,04,23,01,44,4.40
2022,04,23,01,45,4.40
2022,04,23,01,46,4.40
2022,04,23,01,47,4.40
2022,04,23,01,48,4.40
2022,04,23,01,49,4.40
2022,04,23,01,50,4.40
2022,04,23,01,51,4.40
2022,04,23,01,52,4.30
2022,04,23,01,53,4.30
2022,04,23,01,54,4.30
2022,04,23,01,55,4.20
2022,04,23,01,56,4.20
2022,04,23,01,57,4.20
2022,04,23,01,58,4.20
2022,04,23,01,59,4.10
2022,04,23,02,00,4.10
2022,04,23,02,01,4.00
2022,04,23,02,02,4.00
2022,04,23,02,03,4.00
2022,04,23,02,04,4.00
2022,04,23,02,05,4.10
2022,04,23,02,06,4.20
2022,04,23,02,07,4.30
2022,04,23,02,08,4.30
2022,04,23,02,09,4.20
2022,04,23,02,10,4.20
2022,04,23,02,11,4.20
2022,04,23,02,12,4.10
2022,04,23,02,13,4.10
2022,04,23,02,14,4.10
2022,04,23,02,15,4.10
2022,04,23,02,16,4.10
2022,04,23,02,17,4.10
2022,04,23,02,18,4.10
2022,04,23,02,19,4.10
2022,04,23,02,20,4.10
2022,04,23,02,21,4.10
2022,04,23,02,22,4.10
2022,04,23,02,23,4.10
2022,04,23,02,24,4.10
2022,04,23,02,25,4.10
2022,04,23,02,26,4.00
2022,04,23,02,27,4.00
2022,04,23,02,28,3.90
2022,04,23,02,29,3.90
2022,04,23,02,30,3.90
2022,04,23,02,31,3.80
2022,04,23,02,32,3.80
2022,04,23,02,33,3.80
2022,04,23,02,34,3.80
2022,04,23,02,35,3.90
2022,04,23,02,36,3.90
2022,04,23,02,37,3.90
2022,04,23,02,38,3.90
2022,04,23,02,39,4.00
2022,04,23,02,40,3.90
2022,04,23,02,41,3.90
2022,04,23,02,42,3.90
2022,04,23,02,43,3.90
2022,04,23,02,44,3.80
2022,04,23,02,45,3.80
2022,04,23,02,46,3.80
2022,04,23,02,47,3.70
2022,04,23,02,48,3.70
2022,04,23,02,49,3.60
2022,04,23,02,50,3.60
2022,04,23,02,51,3.60
2022,04,23,02,52,3.70
2022,04,23,02,53,3.70
2022,04,23,02,54,3.70
2022,04,23,02,55,3.70
2022,04,23,02,56,3.70
2022,04,23,02,57,3.70
2022,04,23,02,58,3.60
2022,04,23,02,59,3.60
2022,04,23,03,00,3.60
2022,04,23,03,01,3.60
2022,04,23,03,02,3.60
2022,04,23,03,03,3.60
2022,04,23,03,04,3.60
2022,04,23,03,05,3.70
2022,04,23,03,06,3.80
2022,04,23,03,07,3.80
2022,04,23,03,08,3.80
2022,04,23,03,09,3.80
2022,04,23,03,10,3.80
2022,04,23,03,11,3.90
2022,04,23,03,12,3.90
2022,04,23,03,13,3.90
2022,04,23,03,14,3.90
2022,04,23,03,15,3.80
2022,04,23,03,16,3.80
2022,04,23,03,17,3.80
2022,04,23,03,18,3.80
2022,04,23,03,19,3.70
2022,04,23,03,20,3.70
2022,04,23,03,21,3.80
2022,04,23,03,22,3.80
2022,04,23,03,23,3.80
2022,04,23,03,24,3.90
2022,04,23,03,25,3.80
2022,04,23,03,26,3.80
2022,04,23,03,27,3.80
2022,04,23,03,28,3.80
2022,04,23,03,29,3.70
2022,04,23,03,30,3.70
2022,04,23,03,31,3.70
2022,04,23,03,32,3.70
2022,04,23,03,33,3.70
2022,04,23,03,34,3.70
2022,04,23,03,35,3.70
2022,04,23,03,36,3.70
2022,04,23,03,37,3.70
2022,04,23,03,38,3.80
2022,04,23,03,39,3.90
2022,04,23,03,40,4.00
2022,04,23,03,41,4.10
2022,04,23,03,42,4.10
2022,04,23,03,43,4.10
2022,04,23,03,44,4.00
2022,04,23,03,45,4.00
2022,04,23,03,46,4.00
2022,04,23,03,47,4.00
2022,04,23,03,48,4.10
2022,04,23,03,49,4.10
2022,04,23,03,50,4.20
2022,04,23,03,51,4.20
2022,04,23,03,52,4.10
2022,04,23,03,53,4.20
2022,04,23,03,54,4.20
2022,04,23,03,55,4.20
2022,04,23,03,56,4.20
2022,04,23,03,57,4.10
2022,04,23,03,58,4.00
2022,04,23,03,59,3.90
2022,04,23,04,00,3.80
2022,04,23,04,01,3.70
2022,04,23,04,02,3.70
2022,04,23,04,03,3.60
2022,04,23,04,04,3.50
2022,04,23,04,05,3.50
2022,04,23,04,06,3.50
2022,04,23,04,07,3.50
2022,04,23,04,08,3.50
2022,04,23,04,09,3.60
2022,04,23,04,10,3.60
2022,04,23,04,11,3.70
2022,04,23,04,12,3.70
2022,04,23,04,13,3.70
2022,04,23,04,14,3.70
2022,04,23,04,15,3.70
2022,04,23,04,16,3.70
2022,04,23,04,17,3.70
2022,04,23,04,18,3.70
2022,04,23,04,19,3.70
2022,04,23,04,20,3.70
2022,04,23,04,21,3.60
2022,04,23,04,22,3.60
2022,04,23,04,23,3.50
2022,04,23,04,24,3.40
2022,04,23,04,25,3.40
2022,04,23,04,26,3.40
2022,04,23,04,27,3.40
2022,04,23,04,28,3.40
2022,04,23,04,29,3.40
2022,04,23,04,30,3.40
2022,04,23,04,31,3.40
2022,04,23,04,32,3.40
2022,04,23,04,33,3.40
2022,04,23,04,34,3.40
2022,04,23,04,35,3.40
2022,04,23,04,36,3.40
2022,04,23,04,37,3.40
2022,04,23,04,38,3.40
2022,04,23,04,39,3.40
2022,04,23,04,40,3.50
2022,04,23,04,41,3.50
2022,04,23,04,42,3.50
2022,04,23,04,43,3.50
2022,04,23,04,44,3.50
2022,04,23,04,45,3.50
2022,04,23,04,46,3.50
2022,04,23,04,47,3.50
2022,04,23,04,48,3.50
2022,04,23,04,49,3.50
2022,04,23,04,50,3.50
2022,04,23,04,51,3.40
2022,04,23,04,52,3.40
2022,04,23,04,53,3.30
2022,04,23,04,54,3.30
2022,04,23,04,55,3.30
2022,04,23,04,56,3.30
2022,04,23,04,57,3.30
2022,04,23,04,58,3.30
2022,04,23,04,59,3.30
2022,04,23,05,00,3.30
2022,04,23,05,01,3.20
2022,04,23,05,02,3.20
2022,04,23,05,03,3.10
2022,04,23,05,04,3.10
2022,04,23,05,05,3.00
2022,04,23,05,06,3.00
2022,04,23,05,07,3.00
2022,04,23,05,08,3.00
2022,04,23,05,09,3.00
2022,04,23,05,10,3.10
2022,04,23,05,11,3.10
2022,04,23,05,12,3.10
2022,04,23,05,13,3.00
2022,04,23,05,14,3.00
2022,04,23,05,15,2.90
2022,04,23,05,16,2.90
2022,04,23,05,17,2.90
2022,04,23,05,18,2.90
2022,04,23,05,19,2.90
2022,04,23,05,20,2.90
2022,04,23,05,21,2.90
2022,04,23,05,22,2.90
2022,04,23,05,23,2.90
2022,04,23,05,24,2.90
2022,04,23,05,25,2.90
2022,04,23,05,26,3.00
2022,04,23,05,27,3.00
2022,04,23,05,28,2.90
2022,04,23,05,29,2.90
2022,04,23,05,30,2.80
2022,04,23,05,31,2.80
2022,04,23,05,32,2.80
2022,04,23,05,33,2.80
2022,04,23,05,34,2.80
2022,04,23,05,35,2.80
2022,04,23,05,36,2.80
2022,04,23,05,37,2.90
2022,04,23,05,38,2.90
2022,04,23,05,39,2.90
2022,04,23,05,40,2.90
2022,04,23,05,41,2.90
2022,04,23,05,42,3.00
2022,04,23,05,43,3.00
2022,04,23,05,44,3.10
2022,04,23,05,45,3.20
2022,04,23,05,46,3.20
2022,04,23,05,47,3.20
2022,04,23,05,48,3.20
2022,04,23,05,49,3.20
2022,04,23,05,50,3.20
2022,04,23,05,51,3.20
2022,04,23,05,52,3.20
2022,04,23,05,53,3.30
2022,04,23,05,54,3.40
2022,04,23,05,55,3.40
2022,04,23,05,56,3.50
2022,04,23,05,57,3.40
2022,04,23,05,58,3.40
2022,04,23,05,59,3.40
2022,04,23,06,00,3.40
2022,04,23,06,01,3.30
2022,04,23,06,02,3.20
2022,04,23,06,03,3.10
2022,04,23,06,04,3.00
2022,04,23,06,05,3.00
2022,04,23,06,06,2.90
2022,04,23,06,07,2.90
2022,04,23,06,08,2.90
2022,04,23,06,09,2.80
2022,04,23,06,10,2.80
2022,04,23,06,11,2.80
2022,04,23,06,12,2.80
2022,04,23,06,13,2.80
2022,04,23,06,14,2.70
2022,04,23,06,15,2.70
2022,04,23,06,16,2.60
2022,04,23,06,17,2.60
2022,04,23,06,18,2.50
2022,04,23,06,19,2.50
2022,04,23,06,20,2.60
2022,04,23,06,21,2.60
2022,04,23,06,22,2.70
2022,04,23,06,23,2.70
2022,04,23,06,24,2.70
2022,04,23,06,25,2.70
2022,04,23,06,26,2.70
2022,04,23,06,27,2.70
2022,04,23,06,28,2.60
2022,04,23,06,29,2.60
2022,04,23,06,30,2.50
2022,04,23,06,31,2.40
2022,04,23,06,32,2.40
2022,04,23,06,33,2.40
2022,04,23,06,34,2.40
2022,04,23,06,35,2.40
2022,04,23,06,36,2.40
2022,04,23,06,37,2.40
2022,04,23,06,38,2.40
2022,04,23,06,39,2.30
2022,04,23,06,40,2.30
2022,04,23,06,41,2.30
2022,04,23,06,42,2.30
2022,04,23,06,43,2.30
2022,04,23,06,44,2.30
2022,04,23,06,45,2.30
2022,04,23,06,46,2.30
2022,04,23,06,47,2.30
2022,04,23,06,48,2.30
2022,04,23,06,49,2.30
2022,04,23,06,50,2.30
2022,04,23,06,51,2.30
2022,04,23,06,52,2.30
2022,04,23,06,53,2.30
2022,04,23,06,54,2.40
2022,04,23,06,55,2.40
2022,04,23,06,56,2.50
2022,04,23,06,57,2.60
2022,04,23,06,58,2.70
2022,04,23,06,59,2.70
2022,04,23,07,00,2.80
2022,04,23,07,01,2.80
2022,04,23,07,02,2.90
2022,04,23,07,03,2.90
2022,04,23,07,04,3.00
2022,04,23,07,05,3.10
2022,04,23,07,06,3.20
2022,04,23,07,07,3.20
2022,04,23,07,08,3.30
2022,04,23,07,09,3.30
2022,04,23,07,10,3.30
2022,04,23,07,11,3.40
2022,04,23,07,12,3.50
2022,04,23,07,13,3.60
2022,04,23,07,14,3.70
2022,04,23,07,15,3.70
2022,04,23,07,16,3.70
2022,04,23,07,17,3.80
2022,04,23,07,18,3.80
2022,04,23,07,19,3.80
2022,04,23,07,20,3.90
2022,04,23,07,21,3.90
2022,04,23,07,22,4.00
2022,04,23,07,23,4.00
2022,04,23,07,24,4.10
2022,04,23,07,25,4.20
2022,04,23,07,26,4.20
2022,04,23,07,27,4.30
2022,04,23,07,28,4.40
2022,04,23,07,29,4.40
2022,04,23,07,30,4.50
2022,04,23,07,31,4.60
2022,04,23,07,32,4.60
2022,04,23,07,33,4.70
2022,04,23,07,34,4.70
2022,04,23,07,35,4.80
2022,04,23,07,36,4.80
2022,04,23,07,37,4.80
2022,04,23,07,38,4.90
2022,04,23,07,39,5.00
2022,04,23,07,40,5.10
2022,04,23,07,41,5.10
2022,04,23,07,42,5.20
2022,04,23,07,43,5.20
2022,04,23,07,44,5.30
2022,04,23,07,45,5.30
2022,04,23,07,46,5.40
2022,04,23,07,47,5.40
2022,04,23,07,48,5.50
2022,04,23,07,49,5.50
2022,04,23,07,50,5.60
2022,04,23,07,51,5.60
2022,04,23,07,52,5.70
2022,04,23,07,53,5.70
2022,04,23,07,54,5.70
2022,04,23,07,55,5.80
2022,04,23,07,56,5.80
2022,04,23,07,57,5.80
2022,04,23,07,58,5.90
2022,04,23,07,59,5.90
2022,04,23,08,00,5.90
2022,04,23,08,01,5.90
2022,04,23,08,02,6.00
2022,04,23,08,03,6.00
2022,04,23,08,04,6.10
2022,04,23,08,05,6.10
2022,04,23,08,06,6.10
2022,04,23,08,07,6.10
2022,04,23,08,08,6.10
2022,04,23,08,09,6.20
2022,04,23,08,10,6.20
2022,04,23,08,11,6.20
2022,04,23,08,12,6.30
2022,04,23,08,13,6.30
2022,04,23,08,14,6.30
2022,04,23,08,15,6.30
2022,04,23,08,16,6.30
2022,04,23,08,17,6.40
2022,04,23,08,18,6.40
2022,04,23,08,19,6.40
2022,04,23,08,20,6.40
2022,04,23,08,21,6.50
2022,04,23,08,22,6.50
2022,04,23,08,23,6.50
2022,04,23,08,24,6.60
2022,04,23,08,25,6.60
2022,04,23,08,26,6.70
2022,04,23,08,27,6.70
2022,04,23,08,28,6.80
2022,04,23,08,29,6.90
2022,04,23,08,30,6.90
2022,04,23,08,31,7.00
2022,04,23,08,32,7.00
2022,04,23,08,33,7.10
2022,04,23,08,34,7.10
2022,04,23,08,35,7.10
2022,04,23,08,36,7.20
2022,04,23,08,37,7.20
2022,04,23,08,38,7.20
2022,04,23,08,39,7.30
2022,04,23,08,40,7.30
2022,04,23,08,41,7.30
2022,04,23,08,42,7.30
2022,04,23,08,43,7.30
2022,04,23,08,44,7.40
2022,04,23,08,45,7.40
2022,04,23,08,46,7.40
2022,04,23,08,47,7.40
2022,04,23,08,48,7.40
2022,04,23,08,49,7.50
2022,04,23,08,50,7.50
2022,04,23,08,51,7.50
2022,04,23,08,52,7.50
2022,04,23,08,53,7.50
2022,04,23,08,54,7.50
2022,04,23,08,55,7.50
2022,04,23,08,56,7.60
2022,04,23,08,57,7.60
2022,04,23,08,58,7.60
2022,04,23,08,59,7.70
2022,04,23,09,00,7.70
2022,04,23,09,01,7.70
2022,04,23,09,02,7.70
2022,04,23,09,03,7.70
2022,04,23,09,04,7.70
2022,04,23,09,05,7.70
2022,04,23,09,06,7.70
2022,04,23,09,07,7.70
2022,04,23,09,08,7.70
2022,04,23,09,09,7.70
2022,04,23,09,10,7.70
2022,04,23,09,11,7.70
2022,04,23,09,12,7.80
2022,04,23,09,13,7.80
2022,04,23,09,14,7.80
2022,04,23,09,15,7.90
2022,04,23,09,16,7.90
2022,04,23,09,17,8.00
2022,04,23,09,18,8.00
2022,04,23,09,19,8.10
2022,04,23,09,20,8.10
2022,04,23,09,21,8.10
2022,04,23,09,22,8.10
2022,04,23,09,23,8.20
2022,04,23,09,24,8.20
2022,04,23,09,25,8.20
2022,04,23,09,26,8.30
2022,04,23,09,27,8.30
2022,04,23,09,28,8.30
2022,04,23,09,29,8.30
2022,04,23,09,30,8.30
2022,04,23,09,31,8.30
2022,04,23,09,32,8.30
2022,04,23,09,33,8.30
2022,04,23,09,34,8.30
2022,04,23,09,35,8.30
2022,04,23,09,36,8.30
2022,04,23,09,37,8.40
2022,04,23,09,38,8.40
2022,04,23,09,39,8.50
2022,04,23,09,40,8.50
2022,04,23,09,41,8.50
2022,04,23,09,42,8.60
2022,04,23,09,43,8.60
2022,04,23,09,44,8.60
2022,04,23,09,45,8.50
2022,04,23,09,46,8.50
2022,04,23,09,47,8.50
2022,04,23,09,48,8.40
2022,04,23,09,49,8.40
2022,04,23,09,50,8.40
2022,04,23,09,51,8.40
2022,04,23,09,52,8.40
2022,04,23,09,53,8.40
2022,04,23,09,54,8.40
2022,04,23,09,55,8.40
2022,04,23,09,56,8.50
2022,04,23,09,57,8.50
2022,04,23,09,58,8.50
2022,04,23,09,59,8.50
2022,04,23,10,00,8.50
2022,04,23,10,01,8.60
2022,04,23,10,02,8.60
2022,04,23,10,03,8.60
2022,04,23,10,04,8.60
2022,04,23,10,05,8.70
2022,04,23,10,06,8.70
2022,04,23,10,07,8.70
2022,04,23,10,08,8.70
2022,04,23,10,09,8.70
2022,04,23,10,10,8.80
2022,04,23,10,11,8.80
2022,04,23,10,12,8.80
2022,04,23,10,13,8.80
2022,04,23,10,14,8.80
2022,04,23,10,15,8.80
2022,04,23,10,16,8.80
2022,04,23,10,17,8.90
2022,04,23,10,18,8.90
2022,04,23,10,19,8.90
2022,04,23,10,20,8.90
2022,04,23,10,21,9.00
2022,04,23,10,22,9.00
2022,04,23,10,23,9.00
2022,04,23,10,24,9.10
2022,04,23,10,25,9.10
2022,04,23,10,26,9.10
2022,04,23,10,27,9.10
2022,04,23,10,28,9.10
2022,04,23,10,29,9.10
2022,04,23,10,30,9.20
2022,04,23,10,31,9.20
2022,04,23,10,32,9.20
2022,04,23,10,33,9.30
2022,04,23,10,34,9.30
2022,04,23,10,35,9.30
2022,04,23,10,36,9.40
2022,04,23,10,37,9.40
2022,04,23,10,38,9.40
2022,04,23,10,39,9.50
2022,04,23,10,40,9.50
2022,04,23,10,41,9.60
2022,04,23,10,42,9.50
2022,04,23,10,43,9.50
2022,04,23,10,44,9.40
2022,04,23,10,45,9.40
2022,04,23,10,46,9.40
2022,04,23,10,47,9.40
2022,04,23,10,48,9.40
2022,04,23,10,49,9.40
2022,04,23,10,50,9.40
2022,04,23,10,51,9.40
2022,04,23,10,52,9.50
2022,04,23,10,53,9.50
2022,04,23,10,54,9.60
2022,04,23,10,55,9.60
2022,04,23,10,56,9.60
2022,04,23,10,57,9.70
2022,04,23,10,58,9.70
2022,04,23,10,59,9.80
2022,04,23,11,00,9.80
2022,04,23,11,01,9.90
2022,04,23,11,02,9.90
2022,04,23,11,03,9.80
2022,04,23,11,04,9.80
2022,04,23,11,05,9.80
2022,04,23,11,06,9.90
2022,04,23,11,07,9.90
2022,04,23,11,08,9.90
2022,04,23,11,09,9.90
2022,04,23,11,10,9.90
2022,04,23,11,11,10.00
2022,04,23,11,12,10.10
2022,04,23,11,13,10.10
2022,04,23,11,14,10.10
2022,04,23,11,15,10.20
2022,04,23,11,16,10.20
2022,04,23,11,17,10.20
2022,04,23,11,18,10.20
2022,04,23,11,19,10.20
2022,04,23,11,20,10.20
2022,04,23,11,21,10.20
2022,04,23,11,22,10.10
2022,04,23,11,23,10.10
2022,04,23,11,24,10.10
2022,04,23,11,25,10.10
2022,04,23,11,26,10.10
2022,04,23,11,27,10.10
2022,04,23,11,28,10.10
2022,04,23,11,29,10.10
2022,04,23,11,30,10.20
2022,04,23,11,31,10.20
2022,04,23,11,32,10.20
2022,04,23,11,33,10.30
2022,04,23,11,34,10.30
2022,04,23,11,35,10.30
2022,04,23,11,36,10.30
2022,04,23,11,37,10.40
2022,04,23,11,38,10.40
2022,04,23,11,39,10.40
2022,04,23,11,40,10.40
2022,04,23,11,41,10.40
2022,04,23,11,42,10.40
2022,04,23,11,43,10.40
2022,04,23,11,44,10.40
2022,04,23,11,45,10.30
2022,04,23,11,46,10.30
2022,04,23,11,47,10.30
2022,04,23,11,48,10.20
2022,04,23,11,49,10.20
2022,04,23,11,50,10.20
2022,04,23,11,51,10.20
2022,04,23,11,52,10.10
2022,04,23,11,53,10.10
2022,04,23,11,54,10.00
2022,04,23,11,55,10.00
2022,04,23,11,56,10.00
2022,04,23,11,57,10.00
2022,04,23,11,58,10.10
2022,04,23,11,59,10.10
2022,04,23,12,00,10.10
2022,04,23,12,01,10.00
2022,04,23,12,02,10.00
2022,04,23,12,03,10.00
2022,04,23,12,04,10.00
2022,04,23,12,05,10.00
2022,04,23,12,06,10.00
2022,04,23,12,07,10.00
2022,04,23,12,08,9.90
2022,04,23,12,09,9.90
2022,04,23,12,10,10.00
2022,04,23,12,11,10.00
2022,04,23,12,12,9.90
2022,04,23,12,13,9.90
2022,04,23,12,14,9.90
2022,04,23,12,15,9.90
2022,04,23,12,16,9.80
2022,04,23,12,17,9.80
2022,04,23,12,18,9.90
2022,04,23,12,19,9.90
2022,04,23,12,20,9.90
2022,04,23,12,21,10.00
2022,04,23,12,22,10.00
2022,04,23,12,23,10.10
2022,04,23,12,24,10.10
2022,04,23,12,25,10.20
2022,04,23,12,26,10.30
2022,04,23,12,27,10.30
2022,04,23,12,28,10.40
2022,04,23,12,29,10.50
2022,04,23,12,30,10.50
2022,04,23,12,31,10.50
2022,04,23,12,32,10.50
2022,04,23,12,33,10.50
2022,04,23,12,34,10.50
2022,04,23,12,35,10.50
2022,04,23,12,36,10.60
2022,04,23,12,37,10.60
2022,04,23,12,38,10.50
2022,04,23,12,39,10.50
2022,04,23,12,40,10.50
2022,04,23,12,41,10.60
2022,04,23,12,42,10.60
2022,04,23,12,43,10.50
2022,04,23,12,44,10.50
2022,04,23,12,45,10.50
2022,04,23,12,46,10.60
2022,04,23,12,47,10.60
2022,04,23,12,48,10.60
2022,04,23,12,49,10.60
2022,04,23,12,50,10.50
2022,04,23,12,51,10.50
2022,04,23,12,52,10.50
2022,04,23,12,53,10.60
2022,04,23,12,54,10.60
2022,04,23,12,55,10.60
2022,04,23,12,56,10.60
2022,04,23,12,57,10.60
2022,04,23,12,58,10.50
2022,04,23,12,59,10.50
2022,04,23,13,00,10.40
2022,04,23,13,01,10.40
2022,04,23,13,02,10.40
2022,04,23,13,03,10.40
2022,04,23,13,04,10.40
2022,04,23,13,05,10.40
2022,04,23,13,06,10.40
2022,04,23,13,07,10.40
2022,04,23,13,08,10.40
2022,04,23,13,09,10.40
2022,04,23,13,10,10.40
2022,04,23,13,11,10.50
2022,04,23,13,12,10.50
2022,04,23,13,13,10.60
2022,04,23,13,14,10.70
2022,04,23,13,15,10.70
2022,04,23,13,16,10.70
2022,04,23,13,17,10.70
2022,04,23,13,18,10.70
2022,04,23,13,19,10.60
2022,04,23,13,20,10.60
2022,04,23,13,21,10.60
2022,04,23,13,22,10.60
2022,04,23,13,23,10.60
2022,04,23,13,24,10.60
2022,04,23,13,25,10.60
2022,04,23,13,26,10.70
2022,04,23,13,27,10.70
2022,04,23,13,28,10.80
2022,04,23,13,29,10.80
2022,04,23,13,30,10.90
2022,04,23,13,31,11.00
2022,04,23,13,32,11.00
2022,04,23,13,33,10.90
2022,04,23,13,34,10.90
2022,04,23,13,35,10.90
2022,04,23,13,36,10.90
2022,04,23,13,37,10.90
2022,04,23,13,38,10.90
2022,04,23,13,39,10.90
2022,04,23,13,40,10.90
2022,04,23,13,41,10.90
2022,04,23,13,42,10.80
2022,04,23,13,43,10.90
2022,04,23,13,44,10.90
2022,04,23,13,45,11.00
2022,04,23,13,46,11.10
2022,04,23,13,47,11.20
2022,04,23,13,48,11.30
2022,04,23,13,49,11.30
2022,04,23,13,50,11.30
2022,04,23,13,51,11.40
2022,04,23,13,52,11.40
2022,04,23,13,53,11.50
2022,04,23,13,54,11.50
2022,04,23,13,55,11.50
2022,04,23,13,56,11.60
2022,04,23,13,57,11.60
2022,04,23,13,58,11.60
2022,04,23,13,59,11.70
2022,04,23,14,00,11.70
2022,04,23,14,01,11.60
2022,04,23,14,02,11.60
2022,04,23,14,03,11.60
2022,04,23,14,04,11.50
2022,04,23,14,05,11.40
2022,04,23,14,06,11.40
2022,04,23,14,07,11.50
2022,04,23,14,08,11.50
2022,04,23,14,09,11.50
2022,04,23,14,10,11.50
2022,04,23,14,11,11.50
2022,04,23,14,12,11.50
2022,04,23,14,13,11.50
2022,04,23,14,14,11.50
2022,04,23,14,15,11.50
2022,04,23,14,16,11.50
2022,04,23,14,17,11.60
2022,04,23,14,18,11.60
2022,04,23,14,19,11.70
2022,04,23,14,20,11.80
2022,04,23,14,21,11.80
2022,04,23,14,22,11.80
2022,04,23,14,23,11.80
2022,04,23,14,24,11.90
2022,04,23,14,25,11.90
2022,04,23,14,26,11.90
2022,04,23,14,27,12.00
2022,04,23,14,28,12.10
2022,04,23,14,29,12.20
2022,04,23,14,30,12.30
2022,04,23,14,31,12.40
2022,04,23,14,32,12.40
2022,04,23,14,33,12.50
2022,04,23,14,34,12.50
2022,04,23,14,35,12.60
2022,04,23,14,36,12.60
2022,04,23,14,37,12.60
2022,04,23,14,38,12.70
2022,04,23,14,39,12.70
2022,04,23,14,40,12.80
2022,04,23,14,41,12.80
2022,04,23,14,42,12.80
2022,04,23,14,43,12.90
2022,04,23,14,44,12.90
2022,04,23,14,45,13.00
2022,04,23,14,46,13.00
2022,04,23,14,47,13.00
2022,04,23,14,48,13.00
2022,04,23,14,49,13.00
2022,04,23,14,50,13.00
2022,04,23,14,51,13.00
2022,04,23,14,52,12.90
2022,04,23,14,53,13.00
2022,04,23,14,54,13.00
2022,04,23,14,55,13.00
2022,04,23,14,56,13.00
2022,04,23,14,57,13.00
2022,04,23,14,58,13.10
2022,04,23,14,59,13.10
2022,04,23,15,00,13.20
2022,04,23,15,01,13.20
2022,04,23,15,02,13.20
2022,04,23,15,03,13.10
2022,04,23,15,04,13.00
2022,04,23,15,05,13.00
2022,04,23,15,06,13.00
2022,04,23,15,07,12.90
2022,04,23,15,08,12.80
2022,04,23,15,09,12.80
2022,04,23,15,10,12.70
2022,04,23,15,11,12.70
2022,04,23,15,12,12.60
2022,04,23,15,13,12.60
2022,04,23,15,14,12.60
2022,04,23,15,15,12.50
2022,04,23,15,16,12.50
2022,04,23,15,17,12.40
2022,04,23,15,18,12.40
2022,04,23,15,19,12.30
2022,04,23,15,20,12.30
2022,04,23,15,21,12.30
2022,04,23,15,22,12.30
2022,04,23,15,23,12.30
2022,04,23,15,24,12.30
2022,04,23,15,25,12.30
2022,04,23,15,26,12.30
2022,04,23,15,27,12.30
2022,04,23,15,28,12.30
2022,04,23,15,29,12.30
2022,04,23,15,30,12.30
2022,04,23,15,31,12.30
2022,04,23,15,32,12.30
2022,04,23,15,33,12.30
2022,04,23,15,34,12.30
2022,04,23,15,35,12.30
2022,04,23,15,36,12.30
2022,04,23,15,37,12.30
2022,04,23,15,38,12.30
2022,04,23,15,39,12.30
2022,04,23,15,40,12.30
2022,04,23,15,41,12.30
2022,04,23,15,42,12.30
2022,04,23,15,43,12.30
2022,04,23,15,44,12.30
2022,04,23,15,45,12.30
2022,04,23,15,46,12.30
2022,04,23,15,47,12.30
2022,04,23,15,48,12.30
2022,04,23,15,49,12.30
2022,04,23,15,50,12.30
2022,04,23,15,51,12.30
2022,04,23,15,52,12.30
2022,04,23,15,53,12.30
2022,04,23,15,54,12.30
2022,04,23,15,55,12.30
2022,04,23,15,56,12.30
2022,04,23,15,57,12.20
2022,04,23,15,58,12.20
2022,04,23,15,59,12.10
2022,04,23,16,00,12.10
2022,04,23,16,01,12.10
2022,04,23,16,02,12.10
2022,04,23,16,03,12.20
2022,04,23,16,04,12.20
2022,04,23,16,05,12.20
2022,04,23,16,06,12.30
2022,04,23,16,07,12.30
2022,04,23,16,08,12.30
2022,04,23,16,09,12.30
2022,04,23,16,10,12.40
2022,04,23,16,11,12.40
2022,04,23,16,12,12.40
2022,04,23,16,13,12.40
2022,04,23,16,14,12.40
2022,04,23,16,15,12.30
2022,04,23,16,16,12.30
2022,04,23,16,17,12.30
2022,04,23,16,18,12.30
2022,04,23,16,19,12.30
2022,04,23,16,20,12.30
2022,04,23,16,21,12.30
2022,04,23,16,22,12.30
2022,04,23,16,23,12.30
2022,04,23,16,24,12.30
2022,04,23,16,25,12.30
2022,04,23,16,26,12.30
2022,04,23,16,27,12.20
2022,04,23,16,28,12.20
2022,04,23,16,29,12.20
2022,04,23,16,30,12.20
2022,04,23,16,31,12.20
2022,04,23,16,32,12.20
2022,04,23,16,33,12.20
2022,04,23,16,34,12.20
2022,04,23,16,35,12.20
2022,04,23,16,36,12.20
2022,04,23,16,37,12.20
2022,04,23,16,38,12.20
2022,04,23,16,39,12.20
2022,04,23,16,40,12.20
2022,04,23,16,41,12.20
2022,04,23,16,42,12.20
2022,04,23,16,43,12.20
2022,04,23,16,44,12.20
2022,04,23,16,45,12.20
2022,04,23,16,46,12.20
2022,04,23,16,47,12.20
2022,04,23,16,48,12.20
2022,04,23,16,49,12.10
2022,04,23,16,50,12.10
2022,04,23,16,51,12.10
2022,04,23,16,52,12.10
2022,04,23,16,53,12.10
2022,04,23,16,54,12.10
2022,04,23,16,55,12.10
2022,04,23,16,56,12.10
2022,04,23,16,57,12.10
2022,04,23,16,58,12.10
2022,04,23,16,59,12.00
2022,04,23,17,00,12.00
2022,04,23,17,01,11.90
2022,04,23,17,02,11.90
2022,04,23,17,03,11.90
2022,04,23,17,04,11.90
2022,04,23,17,05,11.90
2022,04,23,17,06,11.90
2022,04,23,17,07,11.90
2022,04,23,17,08,11.90
2022,04,23,17,09,12.00
2022,04,23,17,10,12.00
2022,04,23,17,11,12.10
2022,04,23,17,12,12.10
2022,04,23,17,13,12.20
2022,04,23,17,14,12.20
2022,04,23,17,15,12.20
2022,04,23,17,16,12.30
2022,04,23,17,17,12.30
2022,04,23,17,18,12.30
2022,04,23,17,19,12.30
2022,04,23,17,20,12.30
2022,04,23,17,21,12.30
2022,04,23,17,22,12.30
2022,04,23,17,23,12.30
2022,04,23,17,24,12.30
2022,04,23,17,25,12.30
2022,04,23,17,26,12.40
2022,04,23,17,27,12.40
2022,04,23,17,28,12.40
2022,04,23,17,29,12.40
2022,04,23,17,30,12.40
2022,04,23,17,31,12.40
2022,04,23,17,32,12.40
2022,04,23,17,33,12.40
2022,04,23,17,34,12.40
2022,04,23,17,35,12.40
2022,04,23,17,36,12.40
2022,04,23,17,37,12.40
2022,04,23,17,38,12.40
2022,04,23,17,39,12.40
2022,04,23,17,40,12.40
2022,04,23,17,41,12.40
2022,04,23,17,42,12.40
2022,04,23,17,43,12.30
2022,04,23,17,44,12.30
2022,04,23,17,45,12.30
2022,04,23,17,46,12.30
2022,04,23,17,47,12.30
2022,04,23,17,48,12.30
2022,04,23,17,49,12.30